Probability
0 0 0 0 0 0 0 0 0 0 0 0 0 0 1 3 7 13 22 30 35 37 38 43 50 52 54 57 62 70 80 87 90 90 87 82 74 60 42 32 28 25 20 16
0 0 0 0 0 0 0 0 0 0 0 0 0 1 3 6 10 18 28 35 37 40 44 49 55 57 58 59 64 71 81 88 90 89 85 79 70 54 38 28 22 18 14 11
0 0 0 0 0 0 0 0 0 0 0 0 0 1 5 10 18 26 34 39 42 44 49 54 59 62 62 62 65 71 80 86 86 83 79 75 65 49 33 22 14 10 8 7
0 0 0 0 0 0 0 0 0 0 0 0 0 1 6 14 24 31 35 39 43 44 47 52 56 57 58 60 63 68 74 78 76 72 70 68 59 44 27 16 9 7 6 6
0 0 0 0 0 0 0 0 0 0 0 0 0 1 5 16 25 32 35 37 39 40 41 44 46 45 46 50 54 58 63 65 63 60 58 55 47 33 19 11 7 6 6 6
0 0 0 0 0 0 0 0 0 0 0 0 0 1 6 15 24 32 35 34 33 33 34 35 33 31 31 35 38 43 47 48 45 45 44 40 30 21 13 8 6 6 5 5
0 0 0 0 0 0 0 0 0 0 0 0 0 3 9 16 23 28 28 25 24 24 24 23 21 20 19 20 22 25 27 28 28 28 27 23 17 13 9 5 4 4 4 4
0 0 0 0 0 0 0 0 0 0 0 0 2 8 15 18 20 20 17 14 14 15 14 14 13 12 11 11 11 11 11 13 14 14 12 10 8 7 5 4 3 3 3 3
0 0 0 0 0 0 0 0 0 0 0 0 3 10 16 17 15 13 11 10 9 8 8 7 6 6 5 5 5 5 4 5 5 6 5 4 3 3 3 3 3 2 2 1
0 0 0 0 0 0 0 0 0 0 0 0 2 6 11 13 12 10 8 6 5 3 2 2 2 2 2 2 2 2 2 1 1 1 1 1 1 1 2 2 1 1 1 0
0 0 0 0 0 0 0 0 0 0 0 0 1 3 7 11 9 6 4 3 1 0 0 0 0 0 1 1 1 1 1 0 0 0 0 0 0 0 1 1 0 0 0 0
0 0 0 0 0 0 0 0 0 0 0 0 0 2 5 7 5 2 1 0 0 0 0 0 0 0 0 0 0 0 0 0 0 0 0 0 0 0 0 0 0 0 0 0
0 0 0 0 0 0 0 0 0 0 0 0 0 1 2 3 2 0 0 0 0 0 0 0 0 0 0 0 0 0 0 0 0 0 0 0 0 0 0 0 0 0 0 0
0 0 0 0 0 0 0 0 0 0 0 0 0 1 2 2 1 0 0 0 0 0 0 0 0 0 0 0 0 0 0 0 0 0 0 0 0 0 0 0 0 0 0 0
0 0 0 0 0 0 0 0 0 1 1 0 1 3 4 2 0 0 0 0 0 0 0 0 0 0 0 0 0 0 0 0 0 0 0 0 0 0 0 0 0 0 0 0
0 0 0 0 0 0 0 0 1 2 1 0 1 3 3 1 0 0 0 0 0 0 0 0 0 0 0 0 0 0 0 0 0 0 0 0 0 0 0 0 0 0 0 0
0 0 0 0 0 0 0 0 1 2 2 1 1 2 1 0 0 0 0 0 0 0 0 0 0 0 0 0 0 0 0 0 0 0 0 0 0 0 0 0 0 0 0 0
0 0 0 0 0 0 0 0 0 1 1 1 1 0 0 0 0 0 0 0 0 0 0 0 0 0 0 0 0 0 0 0 0 0 0 0 0 0 0 0 0 0 0 0
0 0 0 0 0 0 0 0 0 0 1 1 0 0 0 0 0 0 0 0 0 0 0 0 0 0 0 0 0 0 0 0 0 0 0 0 0 0 0 0 0 0 0 0
0 0 0 0 0 0 0 0 0 0 0 0 0 0 0 0 0 0 0 0 0 0 0 0 0 0 0 0 0 0 0 0 0 0 0 0 0 0 0 0 0 0 0 0
0 0 0 0 0 0 0 0 0 0 0 0 0 0 0 0 0 0 0 0 0 0 0 0 0 0 0 0 0 0 0 0 0 0 0 0 0 0 0 0 0 0 0 0
0 0 0 0 0 0 0 0 0 0 0 0 0 0 0 0 0 0 0 0 0 0 0 0 0 0 0 0 0 0 0 0 0 0 0 0 0 0 0 0 0 0 0 0
0 0 0 0 0 0 0 0 0 0 0 0 0 0 0 0 0 0 0 0 0 0 0 0 0 0 0 0 0 0 0 0 0 0 0 0 0 0 0 0 0 0 0 0
0 0 0 0 0 0 0 0 0 0 0 0 0 0 0 0 0 0 0 0 0 0 0 0 0 0 0 0 0 0 0 0 0 0 0 0 0 0 0 0 0 0 0 0
0 0 0 0 0 0 0 0 0 0 0 0 0 0 0 0 0 0 0 0 0 0 0 0 0 0 0 0 0 0 0 0 0 0 0 0 0 0 0 0 0 0 0 0
0 0 0 0 0 0 0 0 0 0 0 0 0 0 0 0 0 0 0 0 0 0 0 0 0 0 0 0 0 0 0 0 0 0 0 0 0 0 0 0 0 0 0 0
Wind_Speed
1 2 3 7 7 7 6 6 10 12 9 4 8 11 11 5 3 4 4 4 5 5 4 4 4 5 5 5 8 9 11 11 10 8 6 6 4 4 4 4 5 5 5 4
3 5 10 8 6 6 7 8 11 12 9 4 7 9 5 0 2 4 6 6 5 5 5 5 5 5 5 5 6 8 8 9 9 7 5 4 5 5 4 4 5 5 5 4
6 8 7 7 8 8 9 8 10 10 8 6 1 3 2 4 7 9 8 7 8 8 7 7 6 5 5 5 5 5 5 7 7 7 7 6 5 4 3 4 4 5 5 6
7 9 8 8 10 8 9 9 8 6 2 4 3 1 5 3 8 10 10 10 9 9 8 8 8 6 6 4 3 4 5 5 6 7 8 9 7 5 4 4 4 5 6 6
6 5 5 8 11 8 9 7 4 3 1 2 3 2 5 3 6 8 10 11 11 10 10 10 9 8 9 8 7 6 7 6 6 6 6 7 6 6 6 6 7 6 6 7
8 6 5 7 8 6 4 2 5 5 5 2 3 2 3 2 5 9 10 11 11 11 11 11 11 11 11 11 10 9 10 9 8 8 7 8 9 9 9 8 8 6 5 6
7 6 5 3 4 5 2 5 5 5 4 5 3 3 1 6 10 12 11 11 11 11 11 11 11 12 12 13 12 11 12 12 11 11 10 9 10 10 9 8 8 7 5 5
3 6 4 2 3 3 2 8 7 4 4 4 2 3 5 11 13 13 12 11 10 10 10 11 11 12 12 13 13 13 14 13 13 12 12 11 11 8 8 9 7 7 6 6
1 5 5 4 2 3 1 3 8 6 2 1 1 5 7 10 11 11 11 10 10 9 10 11 11 12 13 13 13 13 14 14 13 13 13 13 12 11 10 9 8 6 6 7
2 4 6 6 5 4 3 3 5 4 3 2 2 3 5 9 10 10 9 9 8 8 9 10 10 11 12 12 13 14 14 14 13 13 12 12 12 11 10 9 9 9 8 8
2 1 6 5 4 2 5 5 4 3 4 5 2 2 1 10 12 11 9 8 8 8 9 9 10 10 11 12 13 13 13 14 13 13 13 12 11 11 11 10 9 8 8 8
2 4 2 3 3 1 4 3 4 3 2 2 3 1 5 9 10 11 11 10 9 9 9 10 10 11 11 12 12 12 12 13 12 12 12 12 11 11 10 10 8 8 8 8
3 5 4 7 8 7 5 3 1 4 2 1 2 3 5 9 9 9 10 10 10 10 10 10 10 10 11 11 11 11 11 11 11 11 11 11 10 10 9 9 8 8 8 8
4 5 4 2 4 4 4 4 3 4 3 1 2 7 7 8 10 9 10 10 10 10 10 11 10 10 10 10 10 10 10 10 10 10 11 10 9 9 9 9 8 8 8 8
6 4 2 2 3 2 6 8 7 3 2 3 3 6 8 8 10 10 10 11 11 11 11 11 10 9 9 9 9 9 9 9 9 9 9 8 8 8 8 8 7 7 6 6
4 3 3 3 2 6 10 12 8 6 4 5 7 5 6 9 9 10 10 10 11 10 10 10 10 9 9 9 8 8 8 7 7 8 8 7 7 7 6 6 6 6 5 5
2 3 3 2 4 4 8 9 7 6 5 2 3 4 10 10 9 8 8 9 10 10 10 9 9 8 8 7 7 7 7 6 7 6 6 5 5 5 4 5 5 4 3 3
2 2 2 1 4 5 0 2 5 8 8 7 9 9 9 10 9 7 6 8 9 9 9 8 7 7 6 6 6 6 6 6 6 5 5 4 4 4 4 4 3 2 2 2
3 4 3 3 3 2 1 3 2 3 4 4 9 11 11 12 10 7 6 8 8 8 8 7 6 6 6 5 5 6 5 5 5 5 4 4 4 4 4 3 2 1 1 1
5 5 4 3 2 1 2 6 3 5 3 1 6 10 9 6 4 3 6 9 9 9 7 6 5 6 6 4 5 6 5 5 4 3 3 3 3 4 3 2 1 1 1 1
4 5 4 2 2 1 4 7 3 2 2 2 4 6 5 2 4 8 9 8 8 7 7 6 6 5 4 4 5 5 4 3 3 3 3 3 2 3 2 2 1 2 2 3
3 2 2 2 2 2 5 4 3 3 2 4 5 5 8 10 11 10 9 8 7 7 6 6 5 4 3 4 5 5 3 2 2 3 3 2 2 1 3 3 3 3 4 4
2 4 4 3 3 3 2 3 3 5 5 5 6 8 11 11 10 9 8 7 6 6 5 4 5 4 3 3 4 4 1 2 3 2 1 0 1 2 2 3 3 3 3 3
1 3 5 4 2 3 5 5 5 6 7 7 9 10 9 10 9 8 7 6 5 5 4 4 5 4 3 2 3 2 2 2 3 2 0 0 1 1 2 2 3 3 2 3
0 3 4 4 3 5 4 5 7 9 10 10 9 8 8 10 9 8 6 5 4 4 3 4 4 4 3 2 1 1 2 2 2 0 0 0 1 2 3 3 2 2 1 2
1 4 5 4 5 5 3 4 8 9 9 10 10 8 7 8 8 7 5 4 4 4 4 4 4 4 3 3 2 1 2 2 2 1 1 0 1 2 3 3 2 3 1 2
Wind_Direction
251 102 227 234 213 212 247 275 283 278 274 258 241 245 255 238 193 170 162 152 151 160 163 158 157 146 146 148 155 181 179 173 166 161 156 150 144 129 115 110 110 114 113 113
3 257 236 235 245 247 258 271 278 287 293 280 241 240 251 58 152 150 144 134 122 96 84 85 97 104 121 141 163 180 174 167 168 162 148 134 125 109 103 101 87 86 95 96
218 245 243 240 255 255 261 245 256 269 311 343 63 321 0 34 65 70 64 74 84 88 88 83 80 96 111 125 154 162 162 157 153 141 126 115 103 100 93 88 82 71 84 88
247 250 254 249 248 235 258 249 245 263 328 312 57 292 298 67 60 61 58 59 63 69 76 78 74 63 61 66 82 106 130 137 138 139 147 147 145 138 123 110 98 79 71 74
258 256 245 247 246 233 237 256 259 260 193 342 6 112 291 48 78 70 61 56 55 55 59 61 58 56 49 51 63 70 81 92 105 119 134 132 120 113 109 105 97 84 72 70
253 263 233 234 251 238 237 350 10 42 65 352 260 156 288 348 119 103 75 61 55 54 55 53 51 51 51 51 56 64 70 71 81 90 98 110 116 119 119 113 104 90 77 72
310 300 280 263 307 319 68 81 30 0 14 258 262 124 57 54 89 101 89 70 59 55 53 51 52 51 52 51 54 61 67 65 69 77 81 92 102 105 106 105 101 97 86 76
329 304 299 285 207 232 202 134 151 192 221 278 346 108 93 86 86 87 85 79 68 60 55 53 52 54 55 55 56 64 67 66 66 73 75 77 84 88 87 86 91 94 91 84
287 288 304 302 251 155 149 173 169 149 216 289 293 118 115 103 95 91 87 80 72 67 65 61 58 57 59 60 59 64 70 70 69 74 77 75 77 82 86 87 86 86 89 92
189 283 312 323 22 28 130 146 86 111 155 259 282 164 171 150 127 110 99 91 83 78 72 69 66 67 66 68 68 68 70 73 73 74 77 80 77 80 83 83 81 78 75 78
72 73 329 11 41 20 34 37 68 117 153 161 220 264 271 158 142 126 115 105 97 87 81 78 74 71 72 72 70 71 71 72 72 73 76 78 77 77 76 76 75 77 73 71
20 97 339 303 287 81 102 105 109 124 270 171 163 35 43 115 121 124 122 114 105 98 92 87 83 80 76 74 73 73 73 74 74 76 77 77 76 76 77 76 73 75 75 71
49 77 30 354 354 6 31 22 100 140 127 131 141 128 92 107 113 117 118 113 107 99 92 85 80 79 79 78 77 75 75 76 75 77 78 76 74 74 75 72 69 69 71 69
82 75 115 173 265 297 329 2 30 106 130 175 158 138 138 135 132 125 119 113 107 100 96 92 86 80 79 79 80 79 76 76 77 77 77 75 73 73 73 72 70 69 72 74
69 62 2 293 299 17 31 18 31 79 141 156 153 139 153 149 137 128 124 120 115 109 103 97 94 90 86 83 80 80 79 77 79 80 79 76 75 74 73 70 68 67 70 79
54 59 10 338 2 59 48 25 32 50 57 89 101 89 115 117 115 118 122 121 114 111 107 105 102 96 91 89 89 87 84 81 82 84 83 81 79 77 74 72 68 67 67 70
26 64 44 327 320 72 41 5 24 41 31 83 106 119 126 119 116 119 123 122 121 121 117 112 107 102 98 94 93 89 86 83 81 83 83 82 83 81 77 77 72 70 69 75
129 75 90 13 36 67 106 337 63 73 47 64 98 109 107 103 92 83 100 113 113 113 110 105 100 97 92 91 89 87 82 80 80 79 78 80 84 82 77 73 69 62 61 74
121 116 81 74 72 109 22 350 353 91 55 66 113 113 113 114 91 69 76 98 106 106 105 103 103 102 97 95 96 91 84 83 84 85 86 87 87 86 83 77 61 39 53 28
56 74 86 71 86 103 309 312 315 113 98 77 127 134 140 138 121 125 107 102 101 100 101 103 99 95 93 93 93 90 91 92 97 103 102 96 98 104 105 103 69 26 41 1
25 31 55 69 88 57 305 321 9 120 199 172 142 144 146 114 118 124 117 107 106 104 103 102 99 97 104 103 92 92 100 110 121 110 95 88 93 117 118 88 56 45 40 30
109 80 50 79 79 271 312 16 74 163 124 114 108 106 108 108 111 115 115 113 111 107 103 102 98 95 96 103 103 103 116 146 121 107 96 83 79 100 103 81 58 50 50 43
102 160 153 138 183 232 22 85 108 118 110 110 113 118 122 119 120 118 116 116 116 113 108 102 105 98 90 105 117 119 154 139 115 108 111 120 76 65 81 96 89 61 52 56
26 95 94 83 85 88 79 83 85 95 105 110 119 122 120 119 121 119 119 118 116 115 118 117 114 110 111 121 120 139 151 131 121 121 154 171 103 75 72 89 100 93 76 62
43 82 88 99 125 87 65 90 100 98 105 110 112 113 118 121 123 123 122 124 124 123 125 125 129 133 147 144 136 160 154 126 113 108 317 338 138 131 107 89 90 116 135 155
329 139 143 184 189 145 149 133 118 115 120 123 119 109 112 119 122 120 121 126 127 128 130 133 143 152 168 159 161 188 173 141 128 74 34 79 121 130 130 120 75 45 113 127